Weather History for KONM - January, 2013

Change the Weather History Date:

Sunday, January 20, 2013

  Actual Average (KTCS) Record (KTCS)
Temperature  
Mean Temperature 38 °F -  
Max Temperature 54 °F 55 °F - ()
Min Temperature 21 °F 29 °F - ()
Degree Days  
Heating Degree Days 28    
Month to date heating degree days  
Since 1 July heating degree days  
Moisture  
Dew Point 10 °F    
Average Humidity 36    
Maximum Humidity 60    
Minimum Humidity 15    
Precipitation  
Precipitation 0.00 in - - ()
Month to date precipitation  
Year to date precipitation  
Sea Level Pressure  
Sea Level Pressure 30.27 in    
Wind  
Wind Speed 9 mph (NNW)    
Max Wind Speed 14 mph    
Max Gust Speed -    
Visibility 10 miles    
Events      
T = Trace of Precipitation, MM = Missing Value Source: NWS Daily Summary

Daily Weather History Graph

Daily Weather History Graph

Search for Another Location

Airport or City:

Trip Planner

Search our weather history database for the weather conditions in past years. The results will help you decide how hot, cold, wet, or windy it might be!

Date:

Astronomy

Jan. 20, 2013 Rise Set
Actual Time 7:11 AM MST 5:26 PM MST
Civil Twilight 6:44 AM MST 5:53 PM MST
Nautical Twilight 6:13 AM MST 6:24 PM MST
Astronomical Twilight 5:43 AM MST 6:53 PM MST
Moon 12:28 PM MST (1/20) 1:47 AM MST (1/20)
Length of Visible Light 11h 09m
Length of Day
10h 15m
Waxing Gibbous, 67% of the Moon is Illuminated
Jan 20
Waxing Gibbous
Jan 26
Full
Feb 3
Last Quarter
Feb 10
New
Feb 17
First Quarter

Hourly Weather History & Observations

Time (MST) Temp. Windchill Dew Point Humidity Pressure Visibility Wind Dir Wind Speed Gust Speed Precip Events Conditions
12:15 AM 30.0 °F 21.7 °F 10.4 °F 44% 30.34 in 10.0 mi NW 9.2 mph - N/A   Clear
12:35 AM 30.0 °F 21.1 °F 10.4 °F 44% 30.34 in 10.0 mi NW 10.4 mph - N/A   Clear
12:55 AM 29.8 °F 20.9 °F 10.0 °F 44% 30.34 in 10.0 mi NW 10.4 mph - N/A   Clear
1:15 AM 29.1 °F 20.6 °F 10.2 °F 45% 30.34 in 10.0 mi NW 9.2 mph - N/A   Clear
1:35 AM 28.8 °F 20.9 °F 10.8 °F 47% 30.34 in 10.0 mi NNW 8.1 mph - N/A   Clear
1:55 AM 29.3 °F 20.8 °F 11.8 °F 48% 30.34 in 10.0 mi NNW 9.2 mph - N/A   Clear
2:15 AM 28.0 °F 20.0 °F 11.8 °F 51% 30.34 in 10.0 mi NNW 8.1 mph - N/A   Clear
2:35 AM 28.9 °F 19.8 °F 12.2 °F 50% 30.34 in 10.0 mi North 10.4 mph - N/A   Clear
2:55 AM 28.2 °F 17.7 °F 12.2 °F 51% 30.33 in 10.0 mi North 12.7 mph - N/A   Clear
3:15 AM 27.5 °F 17.4 °F 11.3 °F 51% 30.33 in 10.0 mi North 11.5 mph - N/A   Clear
3:35 AM 27.1 °F 16.9 °F 11.8 °F 53% 30.33 in 10.0 mi North 11.5 mph - N/A   Clear
3:55 AM 26.6 °F 16.2 °F 11.1 °F 52% 30.33 in 10.0 mi North 11.5 mph - N/A   Clear
4:15 AM 26.2 °F 16.4 °F 11.8 °F 55% 30.32 in 10.0 mi North 10.4 mph - N/A   Clear
4:35 AM 24.8 °F 14.6 °F 11.5 °F 57% 30.32 in 10.0 mi NNW 10.4 mph - N/A   Clear
4:55 AM 24.3 °F 13.9 °F 10.8 °F 56% 30.32 in 10.0 mi NW 10.4 mph - N/A   Clear
5:15 AM 23.7 °F 13.3 °F 10.0 °F 56% 30.32 in 10.0 mi NW 10.4 mph - N/A   Clear
5:35 AM 22.8 °F 12.9 °F 9.7 °F 57% 30.33 in 10.0 mi NNW 9.2 mph - N/A   Clear
5:55 AM 22.1 °F 12.0 °F 9.5 °F 58% 30.33 in 10.0 mi NNW 9.2 mph - N/A   Clear
6:15 AM 23.0 °F 13.1 °F 8.6 °F 54% 30.33 in 10.0 mi NNW 9.2 mph - N/A   Clear
6:35 AM 21.7 °F 11.5 °F 8.6 °F 57% 30.33 in 10.0 mi NW 9.2 mph - N/A   Clear
6:55 AM 21.6 °F 12.1 °F 9.3 °F 59% 30.33 in 10.0 mi NNW 8.1 mph - N/A   Clear
7:15 AM 21.9 °F 11.7 °F 9.9 °F 60% 30.33 in 10.0 mi NNW 9.2 mph - N/A   Clear
7:35 AM 22.5 °F 12.4 °F 9.5 °F 58% 30.33 in 10.0 mi NW 9.2 mph - N/A   Clear
7:55 AM 24.1 °F 14.4 °F 9.7 °F 54% 30.33 in 10.0 mi NNW 9.2 mph - N/A   Clear
8:15 AM 25.9 °F 16.6 °F 10.4 °F 52% 30.33 in 10.0 mi North 9.2 mph - N/A   Clear
8:35 AM 27.1 °F 18.9 °F 10.2 °F 49% 30.33 in 10.0 mi NNW 8.1 mph - N/A   Clear
8:55 AM 29.1 °F 21.3 °F 10.4 °F 46% 30.34 in 10.0 mi NNW 8.1 mph - N/A   Clear
9:15 AM 31.3 °F 23.3 °F 10.6 °F 42% 30.34 in 10.0 mi North 9.2 mph - N/A   Clear
9:35 AM 32.9 °F 25.3 °F 11.1 °F 40% 30.34 in 10.0 mi North 9.2 mph - N/A   Clear
9:55 AM 35.4 °F 28.4 °F 11.3 °F 37% 30.34 in 10.0 mi NNW 9.2 mph - N/A   Clear
10:15 AM 36.7 °F 28.4 °F 9.7 °F 33% 30.34 in 10.0 mi North 12.7 mph - N/A   Clear
10:35 AM 37.8 °F 30.7 °F 10.0 °F 32% 30.33 in 10.0 mi North 10.4 mph - N/A   Clear
10:55 AM 39.4 °F 31.4 °F 10.8 °F 31% 30.33 in 10.0 mi North 13.8 mph - N/A   Clear
11:15 AM 41.2 °F 34.5 °F 11.1 °F 29% 30.31 in 10.0 mi North 11.5 mph - N/A   Clear
11:35 AM 42.8 °F 37.0 °F 10.9 °F 27% 30.29 in 10.0 mi North 10.4 mph - N/A   Clear
11:55 AM 45.1 °F 40.3 °F 11.5 °F 26% 30.27 in 10.0 mi North 9.2 mph - N/A   Clear
12:15 PM 46.8 °F - 11.1 °F 24% 30.26 in 10.0 mi North 10.4 mph - N/A   Clear
12:55 PM 49.1 °F - 11.5 °F 22% 30.22 in 10.0 mi NNW 10.4 mph - N/A   Clear
1:15 PM 50.0 °F - 11.3 °F 21% 30.21 in 10.0 mi North 10.4 mph - N/A   Clear
1:35 PM 50.9 °F - 10.8 °F 20% 30.21 in 10.0 mi North 8.1 mph - N/A   Clear
1:55 PM 52.2 °F - 10.8 °F 19% 30.20 in 10.0 mi North 6.9 mph - N/A   Clear
2:15 PM 53.6 °F - 10.2 °F 18% 30.20 in 10.0 mi North 8.1 mph - N/A   Clear
2:35 PM 53.1 °F - 10.2 °F 18% 30.19 in 10.0 mi North 5.8 mph - N/A   Clear
2:55 PM 54.0 °F - 10.2 °F 17% 30.19 in 10.0 mi NNW 5.8 mph - N/A   Clear
3:15 PM 54.7 °F - 9.7 °F 17% 30.19 in 10.0 mi NNW 5.8 mph - N/A   Clear
3:35 PM 54.5 °F - 7.9 °F 15% 30.19 in 10.0 mi North 8.1 mph - N/A   Clear
3:55 PM 54.3 °F - 8.8 °F 16% 30.18 in 10.0 mi North 6.9 mph - N/A   Clear
4:15 PM 54.0 °F - 8.8 °F 16% 30.18 in 10.0 mi North 5.8 mph - N/A   Clear
4:35 PM 53.1 °F - 8.6 °F 17% 30.19 in 10.0 mi North 5.8 mph - N/A   Clear
4:55 PM 51.6 °F - 7.7 °F 17% 30.19 in 10.0 mi NNW 6.9 mph - N/A   Clear
5:15 PM 48.9 °F - 7.7 °F 19% 30.19 in 10.0 mi NW 6.9 mph - N/A   Clear
5:35 PM 45.7 °F 42.0 °F 7.7 °F 21% 30.19 in 10.0 mi NW 6.9 mph - N/A   Clear
5:55 PM 43.2 °F 39.0 °F 7.7 °F 23% 30.19 in 10.0 mi NW 6.9 mph - N/A   Clear
6:15 PM 45.3 °F 40.1 °F 7.9 °F 22% 30.19 in 10.0 mi NW 10.4 mph - N/A   Clear
6:35 PM 43.5 °F 38.9 °F 7.7 °F 23% 30.20 in 10.0 mi NW 8.1 mph - N/A   Clear
6:55 PM 42.6 °F 38.4 °F 7.5 °F 24% 30.20 in 10.0 mi NW 6.9 mph - N/A   Clear
7:15 PM 38.8 °F 33.8 °F 8.1 °F 28% 30.20 in 10.0 mi West 6.9 mph - N/A   Clear
7:35 PM 39.2 °F 33.6 °F 8.4 °F 28% 30.20 in 10.0 mi WSW 8.1 mph - N/A   Clear
7:55 PM 37.2 °F 34.7 °F 8.2 °F 30% 30.22 in 10.0 mi East 3.5 mph - N/A   Clear
8:15 PM 40.5 °F 38.4 °F 8.4 °F 27% 30.22 in 10.0 mi NNE 3.5 mph - N/A   Clear
8:35 PM 34.5 °F 31.6 °F 7.7 °F 33% 30.23 in 10.0 mi NW 3.5 mph - N/A   Clear
8:55 PM 32.0 °F - 7.7 °F 36% 30.23 in 10.0 mi Calm Calm - N/A   Clear
9:15 PM 34.7 °F 31.8 °F 8.2 °F 33% 30.24 in 10.0 mi NE 3.5 mph - N/A   Clear
9:35 PM 33.3 °F - 7.3 °F 34% 30.24 in 10.0 mi Calm Calm - N/A   Clear
9:55 PM 32.0 °F 27.5 °F 7.2 °F 35% 30.24 in 10.0 mi NNW 4.6 mph - N/A   Clear
10:15 PM 33.3 °F 26.4 °F 7.5 °F 34% 30.24 in 10.0 mi NW 8.1 mph - N/A   Clear
10:35 PM 34.2 °F 26.8 °F 7.5 °F 33% 30.24 in 10.0 mi NW 9.2 mph - N/A   Clear
10:55 PM 33.4 °F 25.9 °F 7.5 °F 34% 30.25 in 10.0 mi NW 9.2 mph - N/A   Clear
11:15 PM 33.8 °F 27.7 °F 7.7 °F 34% 30.24 in 10.0 mi WNW 6.9 mph - N/A   Clear
11:35 PM 33.6 °F 28.4 °F 7.2 °F 33% 30.24 in 10.0 mi NNE 5.8 mph - N/A   Clear
11:55 PM 28.9 °F 22.8 °F 6.4 °F 39% 30.24 in 10.0 mi NNW 5.8 mph - N/A   Clear